• Join FlightAware (Why Join?)
  • Login
  • US Flag 
09:16AM EDT


 

Airport Tracker/Info


-or-


 

Live Flight TrackerFlight Track Log ✈ SWA267 ✈ 14-Apr-2013 ✈ KORF - KBWI

Flight Track Log - Related Links

Times and Time Zones

All times are in EDT time to prevent confusion due to time zone crossing. See the SWA267 flight status page for this flight to view local times or setup timezone preferences in your user account.

Time Position Orientation Groundspeed Altitude Reporting Facility
EDT Latitude Longitude Course Direction KTS MPH feet Rate Location/Type
12:24PM 36.9956 -76.1381 16° North 234 269 4,300  Level Washington Center
12:25PM 37.0286 -76.2136 299° West 259 298 6,900 2,700 Climbing Washington Center
12:25PM 37.0469 -76.2764 290° West 261 300 9,100 3,180 Climbing Washington Center
12:26PM 37.0531 -76.2972 290° West 257 296 10,100 1,500 Climbing Washington Center
12:26PM 37.0714 -76.3625 289° West 274 315 10,600 1,200 Climbing Washington Center
12:27PM 37.1083 -76.4669 294° West 307 353 12,300 2,280 Climbing Washington Center
12:28PM 37.1472 -76.5767 294° West 332 382 15,200 1,860 Climbing Washington Center
12:29PM 37.1836 -76.6867 293° West 337 388 16,000 360 Climbing Washington Center
12:30PM 37.2183 -76.7889 293° West 346 398 16,000  Level Washington Center
12:31PM 37.2717 -76.8811 306° West 330 380 16,000  Level Washington Center
12:32PM 37.3733 -76.9089 348° North 333 383 16,000  Level Washington Center
12:33PM 37.4506 -76.9258 350° North 338 389 16,000  Level Washington Center
12:34PM 37.5586 -76.9489 350° North 343 395 16,000  Level Washington Center
12:35PM 37.6544 -76.9717 349° North 349 402 16,000  Level Washington Center
12:36PM 37.7644 -76.9972 350° North 356 410 16,000  Level Washington Center
12:37PM 37.8667 -77.0175 351° North 356 410 16,000  Level Washington Center
12:38PM 37.9683 -77.0406 350° North 362 417 16,000  Level Washington Center
12:39PM 38.0683 -77.0661 349° North 362 417 16,000  Level Washington Center
12:40PM 38.1658 -77.0892 349° North 362 417 16,000  Level Washington Center
12:41PM 38.2678 -77.1122 350° North 367 422 16,000 -300 Level Washington Center
12:42PM 38.3572 -77.1328 350° North 367 422 15,500 -960 Descending Washington Center
12:43PM 38.4394 -77.0708 31° Northeast 343 395 14,100 -1,800 Descending Washington Center
12:44PM 38.5156 -76.9794 43° Northeast 337 388 12,000 -1,500 Descending Washington Center
12:45PM 38.5875 -76.8906 44° Northeast 342 394 11,100 -960 Descending Washington Center
12:46PM 38.6569 -76.8092 42° Northeast 347 399 10,100 -1,080 Descending Washington Center
12:47PM 38.7142 -76.7303 47° Northeast 319 367 9,000 -1,320 Descending Washington Center
12:48PM 38.7667 -76.6167 59° Northeast 303 349 7,600 -1,500 Descending Potomac TRACON
12:49PM 38.8000 -76.5333 63° Northeast 296 341 6,100 -1,020 Descending Potomac TRACON
12:50PM 38.8667 -76.5333 360° North 228 262 5,700 -720 Descending Potomac TRACON
12:51PM 38.9167 -76.5500 345° North 221 254 4,800 -900 Descending Potomac TRACON
12:52PM 38.9833 -76.5667 349° North 220 253 4,000 -960 Descending Potomac TRACON
12:53PM 39.0333 -76.5833 345° North 207 238 2,900 -1,140 Descending Potomac TRACON
12:54PM 39.0833 -76.6000 345° North 185 213 1,900 -960 Descending Potomac TRACON
12:55PM 39.1333 -76.6333 333° Northwest 146 168 1,100 -780 Descending Potomac TRACON
12:56PM 39.1500 -76.6500 322° Northwest 130 150 400 -720 Descending Potomac TRACON
12:58PM 39.1667 -76.6667 339° North  Level FlightAware Approximate
01:05PM 39.1754 -76.6683 339° North  Level Estimated
01:06PM 39.1754 -76.6683 339° North  Level Estimated
01:07PM 39.1754 -76.6683 339° North  Level Estimated
01:08PM 39.1754 -76.6683 339° North  Level Estimated